FW0974 Weather Reports


time (UTC)temp
C
wind
direction
speed
KPH
gust
KPH
rain 1hr
cm
rain 24hr
cm
rain mn
cm
humidity
%
barometer
mb
20260510193034 32 198 8.0 19.3 0.00 0.00 0.00 56 1013.3
20260510191537 32 179 9.7 20.9 0.00 0.00 0.00 55 1013.3
20260510190045 31 192 9.7 20.9 0.00 0.00 0.00 57 1013.3
20260510184532 32 179 8.0 19.3 0.00 0.00 0.00 57 1013.3
20260510183030 34 299 9.7 24.1 0.00 0.00 0.00 49 1013.4
20260510181528 34 303 11.3 24.1 0.00 0.00 0.00 50 1013.1
20260510180026 33 236 6.4 17.7 0.00 0.00 0.00 53 1013.2
20260510174523 33 280 3.2 14.5 0.00 0.00 0.00 56 1013.4
20260510173022 32 352 4.8 12.9 0.00 0.00 0.00 59 1013.7
20260510171522 32 358 4.8 12.9 0.00 0.00 0.00 60 1013.9
20260510170020 33 318 6.4 16.1 0.00 0.00 0.00 56 1014.1
20260510164520 32 295 4.8 14.5 0.00 0.00 0.00 56 1014.3
20260510163015 32 335 3.2 11.3 0.00 0.00 0.00 61 1014.4
20260510161522 32 234 4.8 16.1 0.00 0.00 0.00 62 1014.7
20260510160011 31 230 4.8 17.7 0.00 0.00 0.00 62 1014.8
20260510154509 31 253 3.2 16.1 0.00 0.00 0.00 65 1014.7
20260510153007 31 207 4.8 14.5 0.00 0.00 0.00 66 1014.7
20260510151512 31 240 6.4 19.3 0.00 0.00 0.00 66 1014.7
20260510150124 30 252 4.8 12.9 0.00 0.00 0.00 67 1014.8
20260510144619 30 176 3.2 17.7 0.00 0.00 0.00 69 1014.7
20260510143057 29 216 8.0 17.7 0.00 0.00 0.00 70 1014.5
20260510141552 29 203 11.3 19.3 0.00 0.00 0.00 71 1014.4
20260510140047 28 203 8.0 17.7 0.00 0.00 0.00 74 1014.5
20260510134549 27 176 8.0 14.5 0.00 0.00 0.00 77 1014.4
20260510133047 27 206 4.8 9.7 0.00 0.00 0.00 80 1014.3
20260510131540 26 173 6.4 11.3 0.00 0.00 0.00 81 1014.3
20260510130034 25 195 4.8 9.7 0.00 0.00 0.00 84 1014.3
20260510124531 25 214 3.2 6.4 0.00 0.00 0.00 86 1014.3
20260510123030 25 208 3.2 8.0 0.00 0.00 0.00 87 1014.1
20260510121524 23 213 4.8 11.3 0.00 0.00 0.00 89 1013.9
20260510120022 23 212 3.2 6.4 0.00 0.00 0.00 91 1013.7
20260510114521 23 226 1.6 4.8 0.00 0.00 0.00 93 1013.4
20260510113018 22 250 1.6 3.2 0.00 0.00 0.00 93 1013.0
20260510111520 22 250 0.0 3.2 0.00 0.00 0.00 93 1012.8
20260510110027 22 189 0.0 3.2 0.00 0.00 0.00 93 1012.5
20260510104516 22 189 0.0 3.2 0.00 0.00 0.00 93 1012.3
20260510103015 22 189 1.6 4.8 0.00 0.00 0.00 92 1012.3
20260510101613 22 219 1.6 4.8 0.00 0.00 0.00 92 1012.1
20260510100012 22 219 1.6 4.8 0.00 0.00 0.00 92 1011.8
20260510094514 22 215 1.6 6.4 0.00 0.00 0.00 92 1011.8
20260510093012 22 180 3.2 6.4 0.00 0.00 0.00 92 1011.6
20260510091511 22 181 1.6 6.4 0.00 0.00 0.00 92 1011.6
20260510090011 22 193 1.6 6.4 0.00 0.00 0.00 93 1011.5
20260510084509 22 203 1.6 4.8 0.00 0.00 0.00 92 1011.3
20260510083015 22 162 3.2 6.4 0.00 0.00 0.00 92 1011.1
20260510081508 22 190 3.2 4.8 0.00 0.00 0.00 92 1011.1
20260510080006 22 220 0.0 6.4 0.00 0.00 0.00 92 1011.2
20260510074505 22 162 1.6 4.8 0.00 0.00 0.00 92 1011.3
20260510073006 23 192 1.6 6.4 0.00 0.00 0.00 92 1011.4
20260510071502 23 230 1.6 6.4 0.00 0.00 0.00 92 1011.6
20260510070002 23 163 3.2 6.4 0.00 0.00 0.00 92 1011.7
20260510064603 22 146 1.6 4.8 0.00 0.00 0.00 92 1011.8
20260510063101 23 146 1.6 6.4 0.00 0.00 0.00 91 1011.9
20260510061556 23 146 1.6 3.2 0.00 0.00 0.00 92 1012.3
20260510060054 23 146 0.0 3.2 0.00 0.00 0.00 91 1012.4
20260510054559 23 146 0.0 3.2 0.00 0.00 0.00 91 1012.6
20260510053050 23 146 0.0 3.2 0.00 0.00 0.00 90 1012.8
20260510051548 23 146 0.0 3.2 0.00 0.00 0.00 89 1012.9
20260510050046 23 146 0.0 3.2 0.00 0.00 0.00 88 1013.0
20260510044544 23 146 0.0 0.0 0.00 0.00 0.00 87 1013.1
20260510043042 23 146 0.0 3.2 0.00 0.00 0.00 86 1013.2
20260510041547 23 89 0.0 3.2 0.00 0.00 0.00 87 1013.2
20260510040038 23 89 0.0 3.2 0.00 0.00 0.00 86 1013.2
20260510034538 23 89 0.0 3.2 0.00 0.00 0.00 87 1013.2
20260510033048 23 89 0.0 3.2 0.00 0.00 0.00 85 1013.3
20260510031536 23 89 0.0 3.2 0.00 0.00 0.00 85 1013.1
20260510030035 23 89 0.0 1.6 0.00 0.00 0.00 84 1013.1
20260510024534 23 89 0.0 3.2 0.00 0.00 0.00 83 1012.9
20260510023034 23 90 0.0 4.8 0.00 0.00 0.00 83 1012.8
20260510021538 23 89 1.6 6.4 0.00 0.00 0.00 82 1012.7
20260510020033 23 124 1.6 4.8 0.00 0.00 0.00 82 1012.6
20260510014534 24 49 0.0 3.2 0.00 0.00 0.00 81 1012.5
20260510013038 24 48 0.0 3.2 0.00 0.00 0.00 81 1012.4
20260510011533 24 50 1.6 9.7 0.00 0.00 0.00 80 1012.2
20260510010030 24 46 3.2 9.7 0.00 0.00 0.00 80 1012.1
20260510004531 24 360 4.8 12.9 0.00 0.00 0.00 79 1011.9
20260510003033 25 36 3.2 11.3 0.00 0.00 0.00 80 1011.7
20260510001538 25 360 6.4 12.9 0.00 0.00 0.00 79 1011.5
20260510000028 26 360 8.0 16.1 0.00 0.00 0.00 77 1011.3
20260509234527 27 22 6.4 12.9 0.00 0.00 0.00 70 1011.0
20260509233026 28 355 8.0 17.7 0.00 0.00 0.00 68 1010.8
20260509231526 28 360 4.8 16.1 0.00 0.00 0.00 64 1010.7
20260509230027 29 360 8.0 12.9 0.00 0.00 0.00 63 1010.5
20260509224525 30 334 8.0 16.1 0.00 0.00 0.00 60 1010.3
20260509223024 30 351 6.4 12.9 0.00 0.00 0.00 57 1010.2
20260509221526 31 359 4.8 16.1 0.00 0.00 0.00 56 1009.9
20260509220023 31 360 4.8 16.1 0.00 0.00 0.00 55 1009.8
20260509214534 32 323 4.8 16.1 0.00 0.00 0.00 55 1009.7
20260509213023 32 283 6.4 16.1 0.00 0.00 0.00 54 1009.5
20260509211525 32 300 3.2 14.5 0.00 0.00 0.00 55 1009.4
20260509210020 32 211 6.4 14.5 0.00 0.00 0.00 60 1009.4
20260509204528 32 280 6.4 12.9 0.00 0.00 0.00 56 1009.5
20260509203018 32 312 6.4 14.5 0.00 0.00 0.00 56 1009.6
20260509201518 31 303 3.2 9.7 0.00 0.00 0.00 62 1009.5
20260509200015 30 318 1.6 6.4 0.00 0.00 0.00 66 1009.7
20260509194513 28 229 1.6 16.1 0.00 0.00 0.00 68 1009.7